QPF
0.02 0.01 0.01 0.02 0.03 0.04 0.03 0.04 0.05 0.04 0.03 0.04 0.07 0.07 0.06 0.06 0.06 0.05 0.03 0.03 0.03 0.03 0.05 0.06 0.07 0.07 0.06 0.07 0.06 0.05 0.07 0.09 0.09 0.08 0.09 0.08 0.07 0.08 0.08 0.07 0.05 0.05 0.05
0.01 0.01 0.02 0.02 0.02 0.04 0.04 0.04 0.04 0.03 0.04 0.06 0.09 0.08 0.06 0.05 0.04 0.04 0.04 0.02 0.03 0.02 0.03 0.05 0.06 0.06 0.07 0.08 0.07 0.05 0.05 0.06 0.08 0.09 0.09 0.09 0.08 0.08 0.07 0.06 0.06 0.05 0.06
0.01 0.01 0.01 0.02 0.03 0.03 0.03 0.04 0.04 0.05 0.06 0.07 0.06 0.07 0.05 0.05 0.05 0.05 0.06 0.04 0.04 0.03 0.03 0.04 0.06 0.07 0.06 0.07 0.08 0.06 0.05 0.06 0.08 0.08 0.08 0.08 0.08 0.08 0.07 0.07 0.06 0.05 0.05
0.00 0.01 0.02 0.02 0.02 0.03 0.03 0.05 0.05 0.05 0.07 0.06 0.05 0.05 0.06 0.06 0.07 0.09 0.09 0.08 0.06 0.05 0.05 0.05 0.07 0.08 0.06 0.06 0.06 0.06 0.06 0.07 0.07 0.07 0.07 0.07 0.06 0.06 0.07 0.06 0.05 0.06 0.05
0.00 0.00 0.00 0.01 0.01 0.02 0.02 0.04 0.03 0.04 0.06 0.06 0.05 0.04 0.04 0.04 0.05 0.06 0.07 0.07 0.06 0.06 0.05 0.06 0.06 0.07 0.06 0.06 0.06 0.08 0.07 0.06 0.06 0.07 0.06 0.05 0.06 0.06 0.06 0.05 0.06 0.06 0.04
0.00 0.00 0.00 0.01 0.01 0.01 0.02 0.03 0.03 0.04 0.04 0.05 0.04 0.03 0.05 0.06 0.07 0.06 0.06 0.07 0.06 0.06 0.05 0.07 0.07 0.06 0.05 0.05 0.05 0.06 0.07 0.08 0.08 0.08 0.07 0.06 0.06 0.06 0.07 0.05 0.05 0.05 0.04
0.00 0.00 0.00 0.01 0.01 0.01 0.01 0.03 0.03 0.03 0.03 0.04 0.05 0.06 0.06 0.06 0.06 0.04 0.05 0.05 0.05 0.05 0.05 0.07 0.07 0.05 0.04 0.04 0.05 0.06 0.07 0.07 0.07 0.07 0.08 0.07 0.05 0.04 0.05 0.06 0.06 0.05 0.04
0.02 0.01 0.00 0.00 0.01 0.02 0.02 0.02 0.03 0.03 0.03 0.04 0.06 0.06 0.06 0.04 0.04 0.04 0.03 0.04 0.04 0.04 0.05 0.06 0.06 0.04 0.03 0.04 0.05 0.06 0.05 0.06 0.08 0.07 0.10 0.08 0.06 0.05 0.04 0.05 0.07 0.08 0.08
0.05 0.04 0.01 0.01 0.01 0.01 0.01 0.02 0.04 0.03 0.02 0.02 0.03 0.04 0.04 0.05 0.04 0.04 0.04 0.04 0.03 0.03 0.03 0.04 0.05 0.03 0.03 0.04 0.05 0.05 0.05 0.06 0.06 0.05 0.07 0.08 0.08 0.06 0.06 0.06 0.08 0.10 0.10
0.04 0.03 0.02 0.01 0.01 0.02 0.01 0.02 0.03 0.05 0.05 0.04 0.04 0.04 0.05 0.06 0.05 0.03 0.02 0.01 0.01 0.03 0.04 0.03 0.03 0.02 0.02 0.03 0.04 0.04 0.04 0.05 0.06 0.05 0.05 0.06 0.08 0.07 0.05 0.05 0.05 0.06 0.07
0.02 0.02 0.02 0.01 0.01 0.03 0.02 0.02 0.04 0.05 0.05 0.04 0.04 0.05 0.04 0.05 0.04 0.03 0.03 0.03 0.03 0.04 0.04 0.03 0.02 0.02 0.02 0.03 0.03 0.02 0.04 0.05 0.06 0.05 0.04 0.05 0.05 0.04 0.04 0.04 0.05 0.04 0.06
0.02 0.01 0.01 0.01 0.02 0.03 0.03 0.02 0.04 0.07 0.06 0.04 0.03 0.02 0.03 0.04 0.03 0.03 0.03 0.02 0.03 0.03 0.03 0.03 0.02 0.02 0.02 0.02 0.02 0.03 0.04 0.04 0.04 0.04 0.05 0.04 0.04 0.05 0.05 0.05 0.07 0.07 0.07
0.01 0.01 0.02 0.04 0.04 0.03 0.03 0.02 0.04 0.06 0.07 0.05 0.03 0.02 0.02 0.02 0.03 0.02 0.02 0.02 0.02 0.02 0.02 0.02 0.02 0.02 0.02 0.03 0.04 0.04 0.04 0.03 0.03 0.04 0.04 0.04 0.06 0.04 0.04 0.04 0.06 0.08 0.07
0.02 0.03 0.04 0.07 0.04 0.03 0.03 0.03 0.03 0.03 0.04 0.07 0.09 0.07 0.04 0.04 0.03 0.03 0.02 0.02 0.01 0.01 0.01 0.01 0.02 0.02 0.02 0.03 0.03 0.04 0.05 0.04 0.04 0.04 0.05 0.05 0.04 0.04 0.04 0.05 0.06 0.06 0.06
0.06 0.06 0.04 0.03 0.05 0.05 0.05 0.04 0.03 0.03 0.04 0.04 0.05 0.05 0.05 0.05 0.04 0.03 0.03 0.03 0.02 0.02 0.02 0.02 0.03 0.03 0.03 0.02 0.04 0.06 0.05 0.04 0.05 0.05 0.05 0.05 0.05 0.04 0.04 0.04 0.04 0.05 0.05
0.02 0.02 0.02 0.02 0.04 0.07 0.08 0.07 0.05 0.03 0.03 0.02 0.03 0.04 0.04 0.05 0.03 0.02 0.03 0.02 0.02 0.02 0.03 0.03 0.03 0.03 0.02 0.03 0.05 0.05 0.05 0.06 0.05 0.05 0.06 0.06 0.06 0.05 0.03 0.02 0.02 0.02 0.02
0.02 0.01 0.01 0.01 0.02 0.03 0.05 0.07 0.07 0.05 0.03 0.02 0.03 0.04 0.05 0.04 0.02 0.02 0.01 0.01 0.02 0.03 0.04 0.04 0.05 0.04 0.04 0.05 0.05 0.05 0.04 0.04 0.04 0.04 0.04 0.04 0.04 0.04 0.03 0.03 0.03 0.02 0.01
0.01 0.02 0.02 0.01 0.01 0.01 0.02 0.04 0.07 0.07 0.06 0.04 0.04 0.03 0.03 0.04 0.03 0.02 0.01 0.02 0.03 0.04 0.05 0.05 0.05 0.06 0.05 0.05 0.05 0.06 0.05 0.04 0.03 0.04 0.04 0.04 0.04 0.03 0.04 0.04 0.04 0.03 0.03
0.02 0.01 0.02 0.01 0.01 0.01 0.01 0.02 0.04 0.06 0.08 0.08 0.07 0.05 0.04 0.04 0.04 0.04 0.04 0.04 0.05 0.05 0.05 0.05 0.05 0.06 0.06 0.06 0.05 0.06 0.05 0.05 0.05 0.05 0.04 0.05 0.05 0.04 0.06 0.05 0.05 0.08 0.07
0.05 0.01 0.01 0.01 0.01 0.01 0.01 0.01 0.02 0.03 0.06 0.08 0.08 0.07 0.06 0.06 0.06 0.07 0.08 0.07 0.07 0.06 0.05 0.06 0.06 0.06 0.05 0.06 0.04 0.04 0.05 0.07 0.07 0.08 0.08 0.10 0.09 0.08 0.08 0.08 0.09 0.09 0.06
0.02 0.02 0.01 0.02 0.03 0.02 0.01 0.01 0.02 0.03 0.04 0.05 0.06 0.07 0.08 0.08 0.09 0.08 0.07 0.07 0.08 0.08 0.07 0.06 0.06 0.06 0.06 0.06 0.05 0.05 0.06 0.07 0.07 0.07 0.06 0.06 0.06 0.07 0.09 0.09 0.08 0.07 0.06
0.02 0.03 0.03 0.03 0.03 0.03 0.02 0.03 0.03 0.03 0.05 0.07 0.10 0.10 0.09 0.06 0.07 0.07 0.06 0.07 0.07 0.07 0.06 0.07 0.08 0.08 0.08 0.07 0.06 0.05 0.04 0.04 0.05 0.06 0.06 0.06 0.06 0.05 0.04 0.04 0.04 0.04 0.03
0.03 0.04 0.04 0.04 0.03 0.03 0.03 0.04 0.03 0.04 0.06 0.06 0.07 0.07 0.05 0.04 0.04 0.05 0.06 0.07 0.07 0.08 0.09 0.10 0.11 0.10 0.12 0.12 0.09 0.05 0.03 0.03 0.03 0.04 0.04 0.04 0.04 0.03 0.02 0.02 0.02 0.02 0.02
0.02 0.03 0.04 0.04 0.03 0.03 0.03 0.04 0.05 0.05 0.04 0.04 0.04 0.05 0.04 0.03 0.03 0.04 0.06 0.07 0.09 0.10 0.11 0.12 0.13 0.14 0.17 0.13 0.08 0.05 0.03 0.02 0.01 0.01 0.01 0.01 0.01 0.01 0.01 0.01 0.01 0.02 0.02
0.02 0.03 0.04 0.05 0.06 0.04 0.03 0.03 0.04 0.05 0.05 0.04 0.04 0.03 0.04 0.03 0.03 0.03 0.04 0.04 0.05 0.07 0.08 0.10 0.11 0.10 0.08 0.06 0.04 0.03 0.02 0.02 0.02 0.01 0.01 0.02 0.02 0.01 0.01 0.02 0.02 0.02 0.03
0.02 0.03 0.05 0.05 0.06 0.06 0.05 0.05 0.06 0.05 0.04 0.04 0.04 0.04 0.04 0.03 0.03 0.04 0.03 0.03 0.03 0.04 0.04 0.04 0.04 0.04 0.05 0.04 0.03 0.02 0.01 0.01 0.01 0.01 0.01 0.02 0.03 0.02 0.02 0.02 0.02 0.02 0.03
MSLP
1010.75 1011.38 1011.88 1012.26 1012.59 1012.88 1013.20 1013.55 1013.92 1014.28 1014.58 1014.76 1014.81 1014.72 1014.50 1014.22 1013.93 1013.70 1013.58 1013.59 1013.73 1013.99 1014.31 1014.65 1014.98 1015.26 1015.48 1015.66 1015.80 1015.93 1016.06 1016.18 1016.31 1016.42 1016.50 1016.54 1016.54 1016.49 1016.40 1016.31 1016.22 1016.16 1016.15
1010.16 1010.88 1011.43 1011.84 1012.14 1012.40 1012.68 1013.00 1013.38 1013.78 1014.15 1014.44 1014.60 1014.60 1014.46 1014.20 1013.90 1013.62 1013.43 1013.38 1013.47 1013.70 1014.02 1014.40 1014.77 1015.10 1015.37 1015.58 1015.73 1015.85 1015.95 1016.05 1016.16 1016.26 1016.35 1016.42 1016.44 1016.43 1016.38 1016.31 1016.25 1016.21 1016.20
1009.44 1010.26 1010.90 1011.36 1011.68 1011.93 1012.18 1012.49 1012.86 1013.29 1013.73 1014.11 1014.36 1014.46 1014.39 1014.17 1013.87 1013.56 1013.32 1013.19 1013.22 1013.40 1013.70 1014.08 1014.47 1014.84 1015.14 1015.37 1015.54 1015.66 1015.75 1015.85 1015.95 1016.06 1016.17 1016.26 1016.33 1016.35 1016.34 1016.31 1016.26 1016.22 1016.22
1008.53 1009.47 1010.22 1010.77 1011.15 1011.42 1011.67 1011.96 1012.34 1012.78 1013.27 1013.72 1014.06 1014.25 1014.26 1014.10 1013.82 1013.50 1013.21 1013.02 1012.98 1013.09 1013.35 1013.70 1014.09 1014.47 1014.80 1015.05 1015.24 1015.38 1015.48 1015.58 1015.69 1015.82 1015.95 1016.08 1016.18 1016.25 1016.28 1016.26 1016.23 1016.19 1016.17
1007.42 1008.48 1009.36 1010.03 1010.49 1010.81 1011.08 1011.38 1011.75 1012.21 1012.73 1013.23 1013.66 1013.94 1014.04 1013.95 1013.71 1013.39 1013.08 1012.84 1012.73 1012.77 1012.96 1013.27 1013.63 1014.01 1014.35 1014.63 1014.84 1015.01 1015.14 1015.26 1015.39 1015.54 1015.70 1015.85 1015.99 1016.09 1016.14 1016.15 1016.11 1016.06 1016.01
1006.14 1007.31 1008.32 1009.11 1009.68 1010.08 1010.39 1010.69 1011.07 1011.54 1012.07 1012.63 1013.12 1013.49 1013.68 1013.67 1013.49 1013.21 1012.89 1012.61 1012.44 1012.42 1012.54 1012.79 1013.12 1013.48 1013.83 1014.13 1014.37 1014.57 1014.73 1014.88 1015.04 1015.20 1015.39 1015.56 1015.72 1015.84 1015.90 1015.91 1015.87 1015.80 1015.72
1004.77 1006.02 1007.15 1008.06 1008.74 1009.21 1009.57 1009.91 1010.29 1010.76 1011.31 1011.89 1012.44 1012.88 1013.16 1013.24 1013.14 1012.91 1012.61 1012.32 1012.11 1012.03 1012.09 1012.28 1012.57 1012.91 1013.26 1013.58 1013.86 1014.09 1014.28 1014.46 1014.63 1014.81 1014.99 1015.18 1015.34 1015.46 1015.52 1015.53 1015.48 1015.39 1015.29
1003.44 1004.73 1005.94 1006.94 1007.71 1008.27 1008.68 1009.04 1009.43 1009.89 1010.45 1011.05 1011.64 1012.14 1012.50 1012.67 1012.66 1012.49 1012.23 1011.96 1011.73 1011.62 1011.63 1011.78 1012.04 1012.36 1012.70 1013.04 1013.34 1013.60 1013.81 1014.00 1014.18 1014.35 1014.52 1014.68 1014.82 1014.92 1014.98 1014.98 1014.93 1014.84 1014.72
1002.25 1003.55 1004.79 1005.85 1006.68 1007.30 1007.76 1008.14 1008.53 1008.99 1009.54 1010.14 1010.76 1011.31 1011.74 1011.99 1012.06 1011.97 1011.77 1011.53 1011.32 1011.19 1011.19 1011.31 1011.54 1011.85 1012.20 1012.54 1012.86 1013.13 1013.35 1013.53 1013.68 1013.82 1013.95 1014.07 1014.17 1014.25 1014.29 1014.29 1014.24 1014.16 1014.06
1001.31 1002.56 1003.78 1004.86 1005.72 1006.37 1006.85 1007.25 1007.65 1008.10 1008.63 1009.23 1009.86 1010.44 1010.92 1011.24 1011.39 1011.38 1011.25 1011.07 1010.89 1010.78 1010.78 1010.89 1011.12 1011.42 1011.76 1012.11 1012.43 1012.69 1012.90 1013.05 1013.16 1013.24 1013.31 1013.37 1013.43 1013.47 1013.49 1013.49 1013.46 1013.41 1013.34
1000.65 1001.81 1002.97 1004.01 1004.86 1005.51 1006.00 1006.41 1006.81 1007.25 1007.77 1008.37 1008.99 1009.58 1010.09 1010.47 1010.68 1010.75 1010.69 1010.58 1010.46 1010.39 1010.41 1010.54 1010.77 1011.07 1011.41 1011.75 1012.05 1012.30 1012.47 1012.57 1012.62 1012.63 1012.63 1012.62 1012.62 1012.63 1012.64 1012.65 1012.65 1012.64 1012.63
1000.22 1001.26 1002.31 1003.27 1004.07 1004.70 1005.19 1005.61 1006.01 1006.46 1006.97 1007.56 1008.17 1008.77 1009.29 1009.70 1009.97 1010.10 1010.12 1010.08 1010.03 1010.01 1010.07 1010.22 1010.47 1010.77 1011.10 1011.43 1011.71 1011.91 1012.04 1012.08 1012.07 1012.01 1011.93 1011.86 1011.81 1011.78 1011.79 1011.82 1011.86 1011.90 1011.95
999.94 1000.82 1001.73 1002.57 1003.29 1003.88 1004.37 1004.80 1005.22 1005.69 1006.21 1006.79 1007.40 1008.00 1008.53 1008.96 1009.27 1009.45 1009.53 1009.56 1009.57 1009.62 1009.72 1009.91 1010.17 1010.47 1010.79 1011.10 1011.34 1011.51 1011.59 1011.58 1011.50 1011.38 1011.24 1011.12 1011.03 1010.99 1011.00 1011.04 1011.12 1011.22 1011.33
999.68 1000.38 1001.12 1001.83 1002.46 1003.01 1003.49 1003.95 1004.41 1004.91 1005.46 1006.06 1006.67 1007.26 1007.80 1008.24 1008.57 1008.79 1008.92 1009.01 1009.08 1009.18 1009.33 1009.54 1009.82 1010.12 1010.43 1010.71 1010.92 1011.05 1011.09 1011.04 1010.92 1010.75 1010.58 1010.43 1010.33 1010.28 1010.29 1010.36 1010.47 1010.61 1010.75
999.32 999.85 1000.42 1000.99 1001.53 1002.04 1002.53 1003.02 1003.54 1004.10 1004.70 1005.33 1005.96 1006.55 1007.09 1007.53 1007.87 1008.12 1008.29 1008.42 1008.54 1008.69 1008.87 1009.11 1009.40 1009.70 1009.99 1010.25 1010.44 1010.54 1010.55 1010.47 1010.33 1010.16 1009.98 1009.83 1009.72 1009.67 1009.70 1009.78 1009.90 1010.05 1010.21
998.84 999.19 999.60 1000.04 1000.51 1000.99 1001.50 1002.05 1002.65 1003.28 1003.94 1004.62 1005.27 1005.88 1006.41 1006.85 1007.20 1007.46 1007.66 1007.82 1007.98 1008.16 1008.37 1008.63 1008.92 1009.21 1009.49 1009.73 1009.90 1009.99 1009.99 1009.92 1009.78 1009.62 1009.46 1009.32 1009.23 1009.19 1009.22 1009.30 1009.42 1009.55 1009.68
998.24 998.45 998.73 999.07 999.48 999.96 1000.51 1001.13 1001.80 1002.52 1003.26 1003.98 1004.66 1005.28 1005.82 1006.25 1006.59 1006.86 1007.07 1007.26 1007.44 1007.64 1007.88 1008.15 1008.43 1008.72 1009.00 1009.22 1009.38 1009.47 1009.48 1009.43 1009.32 1009.19 1009.06 1008.95 1008.88 1008.85 1008.87 1008.92 1009.00 1009.08 1009.15
997.64 997.75 997.94 998.22 998.61 999.10 999.69 1000.38 1001.14 1001.93 1002.73 1003.50 1004.21 1004.84 1005.37 1005.80 1006.13 1006.40 1006.61 1006.81 1007.01 1007.24 1007.48 1007.76 1008.04 1008.33 1008.59 1008.81 1008.98 1009.07 1009.11 1009.08 1009.01 1008.92 1008.82 1008.73 1008.67 1008.63 1008.63 1008.63 1008.65 1008.65 1008.63
997.20 997.27 997.42 997.68 998.06 998.58 999.22 999.97 1000.78 1001.64 1002.48 1003.28 1004.00 1004.63 1005.14 1005.56 1005.88 1006.14 1006.36 1006.57 1006.78 1007.01 1007.27 1007.55 1007.84 1008.12 1008.38 1008.60 1008.76 1008.87 1008.93 1008.93 1008.89 1008.83 1008.75 1008.68 1008.60 1008.54 1008.48 1008.42 1008.35 1008.25 1008.13
997.05 997.14 997.30 997.57 997.98 998.53 999.21 999.99 1000.85 1001.72 1002.58 1003.38 1004.09 1004.69 1005.19 1005.58 1005.88 1006.13 1006.35 1006.56 1006.79 1007.03 1007.30 1007.58 1007.87 1008.15 1008.40 1008.62 1008.79 1008.91 1008.97 1008.99 1008.97 1008.91 1008.84 1008.75 1008.65 1008.53 1008.41 1008.26 1008.09 1007.89 1007.66
997.31 997.46 997.68 997.99 998.43 999.00 999.70 1000.49 1001.35 1002.21 1003.05 1003.81 1004.48 1005.05 1005.50 1005.86 1006.14 1006.38 1006.59 1006.81 1007.03 1007.29 1007.56 1007.85 1008.14 1008.42 1008.67 1008.88 1009.05 1009.16 1009.22 1009.23 1009.20 1009.13 1009.03 1008.90 1008.75 1008.57 1008.36 1008.12 1007.85 1007.56 1007.22
997.98 998.23 998.53 998.90 999.38 999.96 1000.65 1001.42 1002.23 1003.04 1003.82 1004.52 1005.12 1005.63 1006.03 1006.34 1006.60 1006.81 1007.02 1007.23 1007.46 1007.72 1008.00 1008.29 1008.58 1008.86 1009.10 1009.30 1009.45 1009.55 1009.59 1009.57 1009.51 1009.40 1009.25 1009.06 1008.84 1008.58 1008.29 1007.97 1007.61 1007.23 1006.83
998.99 999.37 999.75 1000.18 1000.67 1001.25 1001.90 1002.61 1003.35 1004.08 1004.76 1005.37 1005.90 1006.32 1006.66 1006.93 1007.14 1007.33 1007.53 1007.73 1007.96 1008.22 1008.50 1008.79 1009.08 1009.34 1009.57 1009.76 1009.88 1009.95 1009.96 1009.90 1009.79 1009.62 1009.41 1009.15 1008.85 1008.52 1008.15 1007.76 1007.35 1006.91 1006.47
1000.22 1000.70 1001.16 1001.62 1002.12 1002.66 1003.25 1003.88 1004.52 1005.14 1005.72 1006.23 1006.66 1007.00 1007.27 1007.48 1007.66 1007.82 1008.00 1008.19 1008.42 1008.67 1008.94 1009.22 1009.50 1009.75 1009.96 1010.11 1010.21 1010.24 1010.20 1010.10 1009.93 1009.70 1009.42 1009.10 1008.74 1008.34 1007.92 1007.49 1007.04 1006.58 1006.12
1001.48 1002.05 1002.55 1003.02 1003.49 1003.98 1004.50 1005.03 1005.56 1006.06 1006.53 1006.93 1007.27 1007.53 1007.74 1007.90 1008.04 1008.17 1008.32 1008.50 1008.71 1008.95 1009.20 1009.47 1009.72 1009.95 1010.13 1010.26 1010.32 1010.32 1010.23 1010.08 1009.86 1009.58 1009.25 1008.87 1008.47 1008.04 1007.59 1007.14 1006.69 1006.24 1005.79
1002.63 1003.23 1003.74 1004.20 1004.62 1005.04 1005.47 1005.90 1006.31 1006.71 1007.07 1007.38 1007.63 1007.83 1007.98 1008.10 1008.21 1008.31 1008.44 1008.60 1008.79 1009.00 1009.24 1009.48 1009.71 1009.90 1010.06 1010.15 1010.17 1010.13 1010.01 1009.81 1009.55 1009.24 1008.88 1008.48 1008.06 1007.63 1007.19 1006.75 1006.32 1005.90 1005.48
Thickness
5852 5850 5846 5841 5834 5828 5823 5818 5814 5811 5808 5804 5800 5797 5794 5794 5794 5794 5793 5791 5790 5789 5788 5787 5786 5786 5783 5782 5781 5779 5777 5776 5776 5772 5770 5772 5775 5774 5773 5772 5770 5768 5766
5850 5847 5844 5840 5834 5827 5822 5818 5814 5812 5809 5805 5802 5799 5797 5795 5794 5793 5791 5790 5789 5788 5788 5785 5785 5784 5782 5780 5779 5777 5774 5774 5775 5768 5763 5759 5761 5767 5772 5770 5768 5766 5764
5850 5845 5843 5839 5835 5828 5824 5821 5816 5813 5810 5807 5803 5800 5796 5793 5792 5790 5789 5789 5788 5787 5786 5785 5783 5782 5781 5778 5777 5776 5773 5769 5771 5771 5764 5756 5751 5755 5762 5765 5765 5763 5761
5855 5849 5844 5840 5836 5832 5828 5823 5817 5813 5810 5807 5803 5798 5792 5788 5789 5789 5788 5788 5787 5786 5785 5784 5782 5781 5780 5778 5777 5776 5774 5770 5766 5768 5768 5765 5761 5752 5749 5755 5759 5759 5757
5859 5852 5848 5843 5841 5837 5831 5824 5818 5813 5810 5807 5803 5799 5795 5792 5791 5789 5787 5786 5786 5786 5784 5783 5781 5779 5778 5777 5775 5774 5772 5769 5766 5764 5763 5762 5762 5759 5749 5744 5748 5751 5752
5860 5855 5851 5846 5841 5838 5833 5826 5818 5812 5810 5806 5803 5799 5795 5792 5789 5787 5784 5783 5784 5784 5783 5782 5780 5779 5777 5776 5774 5772 5770 5768 5766 5764 5762 5759 5756 5754 5751 5745 5743 5742 5745
5860 5854 5848 5842 5839 5836 5831 5826 5818 5811 5809 5806 5803 5800 5796 5793 5789 5786 5784 5783 5782 5781 5781 5781 5778 5777 5775 5774 5772 5770 5768 5767 5764 5762 5761 5760 5758 5757 5754 5747 5742 5740 5741
5859 5852 5848 5843 5838 5835 5830 5824 5817 5812 5809 5805 5802 5800 5797 5794 5791 5789 5787 5784 5783 5782 5781 5780 5777 5775 5774 5773 5770 5768 5766 5765 5762 5761 5759 5758 5757 5756 5753 5748 5741 5734 5733
5857 5853 5849 5845 5840 5835 5830 5825 5818 5812 5808 5805 5801 5798 5796 5793 5791 5789 5788 5786 5783 5783 5780 5778 5775 5773 5771 5769 5768 5765 5763 5762 5759 5758 5756 5754 5754 5753 5752 5749 5743 5734 5725
5853 5851 5848 5845 5841 5836 5831 5825 5818 5812 5808 5805 5801 5798 5795 5792 5790 5788 5785 5784 5783 5781 5778 5776 5773 5771 5769 5767 5764 5762 5760 5757 5755 5754 5752 5750 5750 5749 5748 5745 5742 5737 5729
5849 5847 5846 5844 5840 5835 5829 5822 5816 5810 5806 5803 5800 5797 5793 5791 5789 5786 5784 5782 5781 5779 5776 5773 5770 5768 5765 5763 5760 5758 5756 5753 5751 5750 5748 5745 5745 5743 5742 5740 5737 5733 5729
5847 5846 5843 5840 5835 5831 5826 5820 5815 5809 5805 5802 5798 5794 5792 5789 5786 5784 5782 5781 5778 5776 5774 5771 5768 5765 5763 5760 5757 5753 5752 5749 5746 5744 5742 5740 5740 5737 5735 5733 5731 5728 5726
5840 5839 5835 5831 5828 5826 5822 5818 5813 5809 5804 5800 5796 5792 5789 5787 5784 5782 5780 5778 5775 5773 5770 5767 5764 5761 5759 5756 5753 5750 5748 5746 5744 5741 5738 5736 5733 5731 5729 5727 5725 5723 5723
5833 5830 5826 5823 5822 5820 5817 5814 5810 5808 5804 5799 5793 5788 5786 5784 5782 5779 5777 5774 5771 5769 5766 5763 5761 5758 5755 5753 5749 5747 5744 5741 5739 5738 5735 5732 5730 5727 5724 5722 5719 5718 5715
5824 5823 5819 5816 5815 5813 5811 5809 5806 5803 5800 5795 5790 5786 5784 5782 5779 5776 5773 5770 5767 5765 5762 5760 5757 5754 5752 5749 5745 5742 5740 5737 5734 5733 5731 5728 5726 5723 5720 5718 5715 5712 5709
5819 5819 5816 5812 5809 5806 5805 5802 5800 5798 5795 5791 5787 5784 5781 5778 5775 5772 5769 5765 5763 5760 5758 5755 5752 5750 5748 5744 5741 5738 5735 5732 5729 5727 5725 5723 5720 5718 5715 5713 5711 5709 5705
5816 5814 5812 5809 5806 5803 5800 5797 5795 5793 5789 5785 5782 5779 5777 5773 5771 5769 5765 5761 5758 5756 5752 5750 5747 5743 5741 5738 5735 5732 5729 5727 5725 5722 5720 5719 5718 5714 5710 5708 5706 5704 5702
5813 5812 5810 5807 5804 5802 5798 5794 5791 5787 5783 5780 5777 5775 5772 5768 5766 5763 5759 5756 5754 5750 5747 5745 5742 5738 5735 5731 5728 5725 5723 5722 5720 5718 5715 5712 5709 5708 5703 5701 5699 5697 5696
5811 5810 5809 5806 5802 5798 5794 5789 5784 5781 5777 5774 5772 5770 5767 5763 5760 5757 5754 5752 5749 5745 5742 5740 5737 5732 5728 5724 5721 5718 5717 5715 5714 5712 5710 5707 5703 5699 5696 5693 5691 5689 5689
5804 5803 5803 5800 5795 5792 5789 5782 5778 5773 5770 5769 5767 5765 5762 5758 5755 5752 5750 5747 5744 5740 5738 5734 5731 5727 5723 5718 5714 5711 5710 5707 5706 5705 5702 5699 5695 5691 5688 5685 5683 5680 5681
5796 5796 5794 5790 5786 5785 5781 5775 5771 5768 5766 5764 5761 5758 5756 5753 5750 5748 5745 5742 5739 5735 5732 5728 5726 5722 5718 5713 5709 5705 5702 5700 5698 5696 5694 5691 5687 5683 5680 5678 5676 5674 5673
5786 5785 5781 5779 5779 5777 5773 5768 5764 5763 5761 5757 5754 5751 5749 5748 5746 5742 5739 5736 5733 5728 5725 5721 5718 5716 5712 5708 5703 5699 5695 5692 5689 5688 5686 5683 5679 5676 5674 5672 5670 5668 5666
5775 5773 5770 5768 5768 5767 5765 5759 5757 5756 5752 5748 5745 5743 5742 5740 5738 5735 5731 5728 5726 5722 5719 5715 5711 5708 5705 5700 5696 5691 5687 5684 5682 5680 5677 5674 5672 5670 5668 5666 5664 5662 5661
5764 5762 5759 5756 5755 5756 5756 5753 5750 5748 5743 5739 5737 5735 5733 5731 5729 5727 5725 5722 5719 5715 5711 5707 5704 5701 5697 5692 5689 5685 5681 5677 5674 5672 5668 5666 5665 5664 5662 5661 5659 5657 5657
5753 5752 5748 5745 5745 5745 5744 5744 5741 5738 5734 5730 5728 5726 5725 5723 5720 5717 5715 5713 5710 5707 5702 5700 5697 5692 5688 5684 5680 5677 5674 5671 5667 5663 5662 5660 5659 5658 5657 5656 5655 5653 5652
5744 5742 5739 5737 5735 5735 5733 5733 5732 5729 5725 5722 5720 5718 5717 5714 5711 5708 5704 5701 5700 5697 5694 5691 5688 5685 5681 5676 5672 5669 5666 5662 5659 5656 5656 5655 5655 5653 5652 5650 5649 5647 5646